Year,Month,Day,Hour,Minute,Value (Times are PST for temperature in C)
2016,03,28,00,00,2.40
2016,03,28,00,01,2.40
2016,03,28,00,02,2.40
2016,03,28,00,03,2.40
2016,03,28,00,04,2.40
2016,03,28,00,05,2.40
2016,03,28,00,06,2.40
2016,03,28,00,07,2.40
2016,03,28,00,08,2.40
2016,03,28,00,09,2.30
2016,03,28,00,10,2.30
2016,03,28,00,11,2.20
2016,03,28,00,12,2.20
2016,03,28,00,13,2.10
2016,03,28,00,14,2.10
2016,03,28,00,15,2.20
2016,03,28,00,16,2.20
2016,03,28,00,17,2.20
2016,03,28,00,18,2.10
2016,03,28,00,19,2.20
2016,03,28,00,20,2.20
2016,03,28,00,21,2.20
2016,03,28,00,22,2.20
2016,03,28,00,23,2.20
2016,03,28,00,24,2.20
2016,03,28,00,25,2.20
2016,03,28,00,26,2.20
2016,03,28,00,27,2.30
2016,03,28,00,28,2.30
2016,03,28,00,29,2.20
2016,03,28,00,30,2.20
2016,03,28,00,31,2.20
2016,03,28,00,32,2.10
2016,03,28,00,33,2.10
2016,03,28,00,34,2.10
2016,03,28,00,35,2.10
2016,03,28,00,36,2.00
2016,03,28,00,37,2.00
2016,03,28,00,38,2.00
2016,03,28,00,39,1.90
2016,03,28,00,40,1.90
2016,03,28,00,41,1.90
2016,03,28,00,42,1.90
2016,03,28,00,43,1.90
2016,03,28,00,44,1.90
2016,03,28,00,45,1.90
2016,03,28,00,46,1.90
2016,03,28,00,47,1.90
2016,03,28,00,48,1.90
2016,03,28,00,49,1.90
2016,03,28,00,50,2.00
2016,03,28,00,51,2.00
2016,03,28,00,52,2.00
2016,03,28,00,53,2.10
2016,03,28,00,54,2.20
2016,03,28,00,55,2.20
2016,03,28,00,56,2.20
2016,03,28,00,57,2.20
2016,03,28,00,58,2.20
2016,03,28,00,59,2.20
2016,03,28,01,00,2.30
2016,03,28,01,01,2.20
2016,03,28,01,02,2.30
2016,03,28,01,03,2.30
2016,03,28,01,04,2.30
2016,03,28,01,05,2.40
2016,03,28,01,06,2.40
2016,03,28,01,07,2.40
2016,03,28,01,08,2.40
2016,03,28,01,09,2.40
2016,03,28,01,10,2.40
2016,03,28,01,11,2.30
2016,03,28,01,12,2.20
2016,03,28,01,13,2.10
2016,03,28,01,14,2.10
2016,03,28,01,15,2.10
2016,03,28,01,16,2.10
2016,03,28,01,17,2.10
2016,03,28,01,18,2.10
2016,03,28,01,19,2.10
2016,03,28,01,20,2.10
2016,03,28,01,21,2.00
2016,03,28,01,22,2.00
2016,03,28,01,23,1.90
2016,03,28,01,24,1.90
2016,03,28,01,25,1.90
2016,03,28,01,26,2.00
2016,03,28,01,27,2.10
2016,03,28,01,28,2.20
2016,03,28,01,29,2.20
2016,03,28,01,30,2.20
2016,03,28,01,31,2.20
2016,03,28,01,32,2.10
2016,03,28,01,33,2.10
2016,03,28,01,34,2.10
2016,03,28,01,35,2.10
2016,03,28,01,36,2.10
2016,03,28,01,37,2.10
2016,03,28,01,38,2.00
2016,03,28,01,39,2.00
2016,03,28,01,40,2.00
2016,03,28,01,41,2.00
2016,03,28,01,42,2.00
2016,03,28,01,43,2.00
2016,03,28,01,44,2.00
2016,03,28,01,45,2.00
2016,03,28,01,46,2.00
2016,03,28,01,47,2.00
2016,03,28,01,48,2.00
2016,03,28,01,49,1.90
2016,03,28,01,50,1.90
2016,03,28,01,51,1.90
2016,03,28,01,52,1.90
2016,03,28,01,53,1.80
2016,03,28,01,54,1.80
2016,03,28,01,55,1.80
2016,03,28,01,56,1.80
2016,03,28,01,57,1.80
2016,03,28,01,58,1.80
2016,03,28,01,59,1.80
2016,03,28,02,00,1.80
2016,03,28,02,01,1.80
2016,03,28,02,02,1.80
2016,03,28,02,03,1.80
2016,03,28,02,04,1.80
2016,03,28,02,05,1.80
2016,03,28,02,06,1.80
2016,03,28,02,07,1.80
2016,03,28,02,08,1.80
2016,03,28,02,09,1.80
2016,03,28,02,10,1.80
2016,03,28,02,11,1.90
2016,03,28,02,12,1.90
2016,03,28,02,13,1.90
2016,03,28,02,14,2.00
2016,03,28,02,15,2.00
2016,03,28,02,16,2.00
2016,03,28,02,17,2.00
2016,03,28,02,18,1.90
2016,03,28,02,19,1.90
2016,03,28,02,20,1.90
2016,03,28,02,21,1.90
2016,03,28,02,22,1.90
2016,03,28,02,23,1.90
2016,03,28,02,24,1.90
2016,03,28,02,25,2.00
2016,03,28,02,26,2.10
2016,03,28,02,27,2.20
2016,03,28,02,28,2.30
2016,03,28,02,29,2.20
2016,03,28,02,30,2.20
2016,03,28,02,31,2.10
2016,03,28,02,32,2.10
2016,03,28,02,33,2.10
2016,03,28,02,34,2.10
2016,03,28,02,35,2.20
2016,03,28,02,36,2.10
2016,03,28,02,37,2.10
2016,03,28,02,38,2.10
2016,03,28,02,39,2.10
2016,03,28,02,40,2.10
2016,03,28,02,41,2.10
2016,03,28,02,42,2.10
2016,03,28,02,43,2.10
2016,03,28,02,44,2.10
2016,03,28,02,45,2.10
2016,03,28,02,46,2.20
2016,03,28,02,47,2.10
2016,03,28,02,48,2.10
2016,03,28,02,49,2.10
2016,03,28,02,50,2.20
2016,03,28,02,51,2.30
2016,03,28,02,52,2.20
2016,03,28,02,53,2.10
2016,03,28,02,54,2.10
2016,03,28,02,55,2.10
2016,03,28,02,56,2.00
2016,03,28,02,57,2.10
2016,03,28,02,58,2.10
2016,03,28,02,59,2.10
2016,03,28,03,00,2.10
2016,03,28,03,01,2.10
2016,03,28,03,02,2.20
2016,03,28,03,03,2.30
2016,03,28,03,04,2.40
2016,03,28,03,05,2.50
2016,03,28,03,06,2.60
2016,03,28,03,07,2.60
2016,03,28,03,08,2.60
2016,03,28,03,09,2.70
2016,03,28,03,10,2.80
2016,03,28,03,11,2.80
2016,03,28,03,12,2.80
2016,03,28,03,13,2.80
2016,03,28,03,14,2.80
2016,03,28,03,15,2.80
2016,03,28,03,16,2.70
2016,03,28,03,17,2.60
2016,03,28,03,18,2.60
2016,03,28,03,19,2.50
2016,03,28,03,20,2.40
2016,03,28,03,21,2.30
2016,03,28,03,22,2.20
2016,03,28,03,23,2.10
2016,03,28,03,24,2.00
2016,03,28,03,25,2.00
2016,03,28,03,26,1.90
2016,03,28,03,27,1.90
2016,03,28,03,28,1.80
2016,03,28,03,29,1.70
2016,03,28,03,30,1.70
2016,03,28,03,31,1.70
2016,03,28,03,32,1.70
2016,03,28,03,33,1.70
2016,03,28,03,34,1.70
2016,03,28,03,35,1.70
2016,03,28,03,36,1.80
2016,03,28,03,37,1.80
2016,03,28,03,38,1.80
2016,03,28,03,39,1.80
2016,03,28,03,40,1.80
2016,03,28,03,41,1.70
2016,03,28,03,42,1.70
2016,03,28,03,43,1.70
2016,03,28,03,44,1.80
2016,03,28,03,45,1.80
2016,03,28,03,46,1.80
2016,03,28,03,47,1.80
2016,03,28,03,48,1.80
2016,03,28,03,49,1.90
2016,03,28,03,50,1.90
2016,03,28,03,51,1.90
2016,03,28,03,52,1.90
2016,03,28,03,53,2.00
2016,03,28,03,54,2.00
2016,03,28,03,55,2.00
2016,03,28,03,56,1.90
2016,03,28,03,57,1.90
2016,03,28,03,58,1.90
2016,03,28,03,59,1.90
2016,03,28,04,00,1.90
2016,03,28,04,01,1.90
2016,03,28,04,02,1.80
2016,03,28,04,03,1.80
2016,03,28,04,04,1.80
2016,03,28,04,05,1.70
2016,03,28,04,06,1.70
2016,03,28,04,07,1.70
2016,03,28,04,08,1.60
2016,03,28,04,09,1.60
2016,03,28,04,10,1.50
2016,03,28,04,11,1.40
2016,03,28,04,12,1.40
2016,03,28,04,13,1.30
2016,03,28,04,14,1.40
2016,03,28,04,15,1.50
2016,03,28,04,16,1.50
2016,03,28,04,17,1.50
2016,03,28,04,18,1.50
2016,03,28,04,19,1.60
2016,03,28,04,20,1.60
2016,03,28,04,21,1.70
2016,03,28,04,22,1.80
2016,03,28,04,23,1.80
2016,03,28,04,24,1.70
2016,03,28,04,25,1.70
2016,03,28,04,26,1.60
2016,03,28,04,27,1.60
2016,03,28,04,28,1.60
2016,03,28,04,29,1.60
2016,03,28,04,30,1.60
2016,03,28,04,31,1.60
2016,03,28,04,32,1.60
2016,03,28,04,33,1.60
2016,03,28,04,34,1.60
2016,03,28,04,35,1.60
2016,03,28,04,36,1.60
2016,03,28,04,37,1.50
2016,03,28,04,38,1.50
2016,03,28,04,39,1.50
2016,03,28,04,40,1.50
2016,03,28,04,41,1.50
2016,03,28,04,42,1.60
2016,03,28,04,43,1.60
2016,03,28,04,44,1.50
2016,03,28,04,45,1.40
2016,03,28,04,46,1.40
2016,03,28,04,47,1.40
2016,03,28,04,48,1.40
2016,03,28,04,49,1.40
2016,03,28,04,50,1.40
2016,03,28,04,51,1.40
2016,03,28,04,52,1.40
2016,03,28,04,53,1.40
2016,03,28,04,54,1.30
2016,03,28,04,55,1.30
2016,03,28,04,56,1.30
2016,03,28,04,57,1.40
2016,03,28,04,58,1.50
2016,03,28,04,59,1.60
2016,03,28,05,00,1.50
2016,03,28,05,01,1.40
2016,03,28,05,02,1.40
2016,03,28,05,03,1.50
2016,03,28,05,04,1.50
2016,03,28,05,05,1.70
2016,03,28,05,06,1.80
2016,03,28,05,07,1.90
2016,03,28,05,08,1.90
2016,03,28,05,09,1.90
2016,03,28,05,10,2.00
2016,03,28,05,11,2.00
2016,03,28,05,12,2.10
2016,03,28,05,13,2.10
2016,03,28,05,14,2.00
2016,03,28,05,15,1.90
2016,03,28,05,16,1.90
2016,03,28,05,17,1.80
2016,03,28,05,18,1.90
2016,03,28,05,19,1.90
2016,03,28,05,20,2.00
2016,03,28,05,21,2.00
2016,03,28,05,22,2.00
2016,03,28,05,23,2.10
2016,03,28,05,24,2.10
2016,03,28,05,25,2.20
2016,03,28,05,26,2.30
2016,03,28,05,27,2.30
2016,03,28,05,28,2.30
2016,03,28,05,29,2.30
2016,03,28,05,30,2.20
2016,03,28,05,31,2.10
2016,03,28,05,32,2.10
2016,03,28,05,33,2.10
2016,03,28,05,34,2.00
2016,03,28,05,35,2.00
2016,03,28,05,36,1.90
2016,03,28,05,37,1.80
2016,03,28,05,38,1.70
2016,03,28,05,39,1.70
2016,03,28,05,40,1.80
2016,03,28,05,41,1.80
2016,03,28,05,42,1.70
2016,03,28,05,43,1.60
2016,03,28,05,44,1.60
2016,03,28,05,45,1.60
2016,03,28,05,46,1.70
2016,03,28,05,47,1.80
2016,03,28,05,48,1.90
2016,03,28,05,49,2.00
2016,03,28,05,50,2.10
2016,03,28,05,51,2.10
2016,03,28,05,52,2.10
2016,03,28,05,53,2.10
2016,03,28,05,54,2.00
2016,03,28,05,55,2.00
2016,03,28,05,56,1.90
2016,03,28,05,57,1.90
2016,03,28,05,58,1.90
2016,03,28,05,59,1.90
2016,03,28,06,00,1.90
2016,03,28,06,01,1.90
2016,03,28,06,02,1.90
2016,03,28,06,03,1.90
2016,03,28,06,04,1.90
2016,03,28,06,05,2.00
2016,03,28,06,06,2.00
2016,03,28,06,07,2.00
2016,03,28,06,08,2.00
2016,03,28,06,09,2.00
2016,03,28,06,10,2.00
2016,03,28,06,11,2.00
2016,03,28,06,12,2.00
2016,03,28,06,13,1.90
2016,03,28,06,14,1.90
2016,03,28,06,15,1.80
2016,03,28,06,16,1.80
2016,03,28,06,17,1.70
2016,03,28,06,18,1.70
2016,03,28,06,19,1.70
2016,03,28,06,20,1.80
2016,03,28,06,21,1.80
2016,03,28,06,22,1.80
2016,03,28,06,23,1.80
2016,03,28,06,24,1.80
2016,03,28,06,25,1.70
2016,03,28,06,26,1.70
2016,03,28,06,27,1.70
2016,03,28,06,28,1.70
2016,03,28,06,29,1.80
2016,03,28,06,30,1.80
2016,03,28,06,31,1.80
2016,03,28,06,32,1.80
2016,03,28,06,33,1.80
2016,03,28,06,34,1.80
2016,03,28,06,35,1.80
2016,03,28,06,36,1.80
2016,03,28,06,37,1.90
2016,03,28,06,38,1.90
2016,03,28,06,39,2.00
2016,03,28,06,40,2.00
2016,03,28,06,41,2.00
2016,03,28,06,42,2.10
2016,03,28,06,43,2.10
2016,03,28,06,44,2.10
2016,03,28,06,45,2.10
2016,03,28,06,46,2.00
2016,03,28,06,47,2.10
2016,03,28,06,48,2.10
2016,03,28,06,49,2.10
2016,03,28,06,50,2.10
2016,03,28,06,51,2.00
2016,03,28,06,52,2.00
2016,03,28,06,53,2.00
2016,03,28,06,54,2.00
2016,03,28,06,55,2.00
2016,03,28,06,56,2.00
2016,03,28,06,57,1.90
2016,03,28,06,58,1.90
2016,03,28,06,59,1.90
2016,03,28,07,00,1.90
2016,03,28,07,01,2.00
2016,03,28,07,02,2.00
2016,03,28,07,03,2.00
2016,03,28,07,04,2.00
2016,03,28,07,05,2.00
2016,03,28,07,06,1.90
2016,03,28,07,07,1.90
2016,03,28,07,08,1.90
2016,03,28,07,09,1.80
2016,03,28,07,10,1.80
2016,03,28,07,11,1.80
2016,03,28,07,12,1.80
2016,03,28,07,13,1.80
2016,03,28,07,14,1.80
2016,03,28,07,15,1.90
2016,03,28,07,16,1.90
2016,03,28,07,17,1.90
2016,03,28,07,18,2.00
2016,03,28,07,19,2.10
2016,03,28,07,20,2.10
2016,03,28,07,21,2.20
2016,03,28,07,22,2.10
2016,03,28,07,23,2.10
2016,03,28,07,24,1.90
2016,03,28,07,25,1.80
2016,03,28,07,26,1.70
2016,03,28,07,27,1.50
2016,03,28,07,28,1.40
2016,03,28,07,29,1.30
2016,03,28,07,30,1.30
2016,03,28,07,31,1.30
2016,03,28,07,32,1.30
2016,03,28,07,33,1.40
2016,03,28,07,34,1.40
2016,03,28,07,35,1.50
2016,03,28,07,36,1.60
2016,03,28,07,37,1.60
2016,03,28,07,38,1.70
2016,03,28,07,39,1.70
2016,03,28,07,40,1.70
2016,03,28,07,41,1.70
2016,03,28,07,42,1.70
2016,03,28,07,43,1.70
2016,03,28,07,44,1.60
2016,03,28,07,45,1.60
2016,03,28,07,46,1.60
2016,03,28,07,47,1.60
2016,03,28,07,48,1.70
2016,03,28,07,49,1.70
2016,03,28,07,50,1.80
2016,03,28,07,51,1.80
2016,03,28,07,52,1.80
2016,03,28,07,53,1.90
2016,03,28,07,54,1.90
2016,03,28,07,55,2.00
2016,03,28,07,56,2.00
2016,03,28,07,57,2.10
2016,03,28,07,58,2.20
2016,03,28,07,59,2.20
2016,03,28,08,00,2.30
2016,03,28,08,01,2.40
2016,03,28,08,02,2.50
2016,03,28,08,03,2.60
2016,03,28,08,04,2.50
2016,03,28,08,05,2.50
2016,03,28,08,06,2.50
2016,03,28,08,07,2.50
2016,03,28,08,08,2.50
2016,03,28,08,09,2.60
2016,03,28,08,10,2.60
2016,03,28,08,11,2.70
2016,03,28,08,12,2.80
2016,03,28,08,13,2.80
2016,03,28,08,14,2.90
2016,03,28,08,15,2.90
2016,03,28,08,16,3.00
2016,03,28,08,17,3.00
2016,03,28,08,18,3.10
2016,03,28,08,19,3.10
2016,03,28,08,20,3.10
2016,03,28,08,21,3.20
2016,03,28,08,22,3.20
2016,03,28,08,23,3.20
2016,03,28,08,24,3.30
2016,03,28,08,25,3.30
2016,03,28,08,26,3.30
2016,03,28,08,27,3.30
2016,03,28,08,28,3.40
2016,03,28,08,29,3.40
2016,03,28,08,30,3.40
2016,03,28,08,31,3.40
2016,03,28,08,32,3.40
2016,03,28,08,33,3.40
2016,03,28,08,34,3.50
2016,03,28,08,35,3.50
2016,03,28,08,36,3.60
2016,03,28,08,37,3.60
2016,03,28,08,38,3.70
2016,03,28,08,39,3.70
2016,03,28,08,40,3.80
2016,03,28,08,41,3.80
2016,03,28,08,42,3.90
2016,03,28,08,43,3.90
2016,03,28,08,44,3.90
2016,03,28,08,45,3.90
2016,03,28,08,46,4.00
2016,03,28,08,47,4.00
2016,03,28,08,48,4.10
2016,03,28,08,49,4.20
2016,03,28,08,50,4.30
2016,03,28,08,51,4.40
2016,03,28,08,52,4.50
2016,03,28,08,53,4.60
2016,03,28,08,54,4.60
2016,03,28,08,55,4.70
2016,03,28,08,56,4.70
2016,03,28,08,57,4.80
2016,03,28,08,58,5.00
2016,03,28,08,59,5.10
2016,03,28,09,00,5.10
2016,03,28,09,01,5.20
2016,03,28,09,02,5.30
2016,03,28,09,03,5.40
2016,03,28,09,04,5.50
2016,03,28,09,05,5.60
2016,03,28,09,06,5.70
2016,03,28,09,07,5.90
2016,03,28,09,08,6.00
2016,03,28,09,09,6.20
2016,03,28,09,10,6.30
2016,03,28,09,11,6.40
2016,03,28,09,12,6.50
2016,03,28,09,13,6.60
2016,03,28,09,14,6.70
2016,03,28,09,15,6.80
2016,03,28,09,16,6.90
2016,03,28,09,17,7.00
2016,03,28,09,18,7.20
2016,03,28,09,19,7.20
2016,03,28,09,20,7.30
2016,03,28,09,21,7.30
2016,03,28,09,22,7.40
2016,03,28,09,23,7.40
2016,03,28,09,24,7.50
2016,03,28,09,25,7.50
2016,03,28,09,26,7.60
2016,03,28,09,27,7.60
2016,03,28,09,28,7.60
2016,03,28,09,29,7.60
2016,03,28,09,30,7.70
2016,03,28,09,31,7.70
2016,03,28,09,32,7.60
2016,03,28,09,33,7.60
2016,03,28,09,34,7.60
2016,03,28,09,35,7.60
2016,03,28,09,36,7.60
2016,03,28,09,37,7.70
2016,03,28,09,38,7.70
2016,03,28,09,39,7.70
2016,03,28,09,40,7.70
2016,03,28,09,41,7.70
2016,03,28,09,42,7.70
2016,03,28,09,43,7.70
2016,03,28,09,44,7.60
2016,03,28,09,45,7.60
2016,03,28,09,46,7.60
2016,03,28,09,47,7.60
2016,03,28,09,48,7.60
2016,03,28,09,49,7.60
2016,03,28,09,50,7.60
2016,03,28,09,51,7.60
2016,03,28,09,52,7.70
2016,03,28,09,53,7.70
2016,03,28,09,54,7.70
2016,03,28,09,55,7.80
2016,03,28,09,56,7.80
2016,03,28,09,57,7.80
2016,03,28,09,58,7.80
2016,03,28,09,59,7.80
2016,03,28,10,00,7.90
2016,03,28,10,01,7.90
2016,03,28,10,02,8.00
2016,03,28,10,03,8.10
2016,03,28,10,04,8.10
2016,03,28,10,05,8.20
2016,03,28,10,06,8.20
2016,03,28,10,07,8.20
2016,03,28,10,08,8.20
2016,03,28,10,09,8.20
2016,03,28,10,10,8.30
2016,03,28,10,11,8.30
2016,03,28,10,12,8.30
2016,03,28,10,13,8.30
2016,03,28,10,14,8.30
2016,03,28,10,15,8.30
2016,03,28,10,16,8.40
2016,03,28,10,17,8.40
2016,03,28,10,18,8.40
2016,03,28,10,19,8.40
2016,03,28,10,20,8.40
2016,03,28,10,21,8.40
2016,03,28,10,22,8.50
2016,03,28,10,23,8.50
2016,03,28,10,24,8.60
2016,03,28,10,25,8.70
2016,03,28,10,26,8.80
2016,03,28,10,27,8.90
2016,03,28,10,28,9.00
2016,03,28,10,29,9.00
2016,03,28,10,30,9.10
2016,03,28,10,31,9.20
2016,03,28,10,32,9.30
2016,03,28,10,33,9.30
2016,03,28,10,34,9.40
2016,03,28,10,35,9.40
2016,03,28,10,36,9.40
2016,03,28,10,37,9.40
2016,03,28,10,38,9.40
2016,03,28,10,39,9.40
2016,03,28,10,40,9.40
2016,03,28,10,41,9.30
2016,03,28,10,42,9.40
2016,03,28,10,43,9.40
2016,03,28,10,44,9.40
2016,03,28,10,45,9.50
2016,03,28,10,46,9.50
2016,03,28,10,47,9.60
2016,03,28,10,48,9.60
2016,03,28,10,49,9.60
2016,03,28,10,50,9.60
2016,03,28,10,51,9.60
2016,03,28,10,52,9.60
2016,03,28,10,53,9.60
2016,03,28,10,54,9.60
2016,03,28,10,55,9.70
2016,03,28,10,56,9.80
2016,03,28,10,57,9.80
2016,03,28,10,58,9.90
2016,03,28,10,59,10.00
2016,03,28,11,00,10.10
2016,03,28,11,01,10.20
2016,03,28,11,02,10.20
2016,03,28,11,03,10.20
2016,03,28,11,04,10.30
2016,03,28,11,05,10.30
2016,03,28,11,06,10.30
2016,03,28,11,07,10.30
2016,03,28,11,08,10.30
2016,03,28,11,09,10.30
2016,03,28,11,10,10.30
2016,03,28,11,11,10.40
2016,03,28,11,12,10.50
2016,03,28,11,13,10.60
2016,03,28,11,14,10.70
2016,03,28,11,15,10.60
2016,03,28,11,16,10.60
2016,03,28,11,17,10.60
2016,03,28,11,18,10.70
2016,03,28,11,19,10.70
2016,03,28,11,20,10.80
2016,03,28,11,21,10.80
2016,03,28,11,22,10.80
2016,03,28,11,23,10.90
2016,03,28,11,24,10.90
2016,03,28,11,25,11.00
2016,03,28,11,26,11.00
2016,03,28,11,27,11.00
2016,03,28,11,28,11.00
2016,03,28,11,29,11.00
2016,03,28,11,30,11.10
2016,03,28,11,31,11.10
2016,03,28,11,32,11.10
2016,03,28,11,33,11.00
2016,03,28,11,34,10.90
2016,03,28,11,35,10.90
2016,03,28,11,36,10.80
2016,03,28,11,37,10.90
2016,03,28,11,38,10.90
2016,03,28,11,39,10.90
2016,03,28,11,40,10.90
2016,03,28,11,41,10.90
2016,03,28,11,42,10.90
2016,03,28,11,43,11.00
2016,03,28,11,44,11.00
2016,03,28,11,45,11.10
2016,03,28,11,46,11.10
2016,03,28,11,47,11.20
2016,03,28,11,48,11.20
2016,03,28,11,49,11.20
2016,03,28,11,50,11.20
2016,03,28,11,51,11.30
2016,03,28,11,52,11.30
2016,03,28,11,53,11.30
2016,03,28,11,54,11.40
2016,03,28,11,55,11.50
2016,03,28,11,56,11.50
2016,03,28,11,57,11.60
2016,03,28,11,58,11.60
2016,03,28,11,59,11.60
2016,03,28,12,00,11.60
2016,03,28,12,01,11.70
2016,03,28,12,02,11.70
2016,03,28,12,03,11.70
2016,03,28,12,04,11.70
2016,03,28,12,05,11.70
2016,03,28,12,06,11.70
2016,03,28,12,07,11.80
2016,03,28,12,08,11.80
2016,03,28,12,09,11.80
2016,03,28,12,10,11.80
2016,03,28,12,11,11.80
2016,03,28,12,12,11.80
2016,03,28,12,13,11.80
2016,03,28,12,14,11.90
2016,03,28,12,15,12.00
2016,03,28,12,16,12.00
2016,03,28,12,17,12.10
2016,03,28,12,18,12.10
2016,03,28,12,19,12.10
2016,03,28,12,20,12.10
2016,03,28,12,21,12.20
2016,03,28,12,22,12.30
2016,03,28,12,23,12.30
2016,03,28,12,24,12.30
2016,03,28,12,25,12.30
2016,03,28,12,26,12.30
2016,03,28,12,27,12.30
2016,03,28,12,28,12.30
2016,03,28,12,29,12.30
2016,03,28,12,30,12.40
2016,03,28,12,31,12.30
2016,03,28,12,32,12.30
2016,03,28,12,33,12.20
2016,03,28,12,34,12.10
2016,03,28,12,35,12.10
2016,03,28,12,36,12.20
2016,03,28,12,37,12.20
2016,03,28,12,38,12.20
2016,03,28,12,39,12.20
2016,03,28,12,40,12.20
2016,03,28,12,41,12.30
2016,03,28,12,42,12.30
2016,03,28,12,43,12.40
2016,03,28,12,44,12.50
2016,03,28,12,45,12.60
2016,03,28,12,46,12.60
2016,03,28,12,47,12.70
2016,03,28,12,48,12.70
2016,03,28,12,49,12.70
2016,03,28,12,50,12.70
2016,03,28,12,51,12.70
2016,03,28,12,52,12.80
2016,03,28,12,53,12.70
2016,03,28,12,54,12.60
2016,03,28,12,55,12.50
2016,03,28,12,56,12.40
2016,03,28,12,57,12.40
2016,03,28,12,58,12.40
2016,03,28,12,59,12.40
2016,03,28,13,00,12.40
2016,03,28,13,01,12.40
2016,03,28,13,02,12.50
2016,03,28,13,03,12.50
2016,03,28,13,04,12.50
2016,03,28,13,05,12.60
2016,03,28,13,06,12.60
2016,03,28,13,07,12.60
2016,03,28,13,08,12.60
2016,03,28,13,09,12.70
2016,03,28,13,10,12.60
2016,03,28,13,11,12.50
2016,03,28,13,12,12.50
2016,03,28,13,13,12.60
2016,03,28,13,14,12.60
2016,03,28,13,15,12.70
2016,03,28,13,16,12.70
2016,03,28,13,17,12.70
2016,03,28,13,18,12.70
2016,03,28,13,19,12.70
2016,03,28,13,20,12.60
2016,03,28,13,21,12.60
2016,03,28,13,22,12.60
2016,03,28,13,23,12.50
2016,03,28,13,24,12.40
2016,03,28,13,25,12.40
2016,03,28,13,26,12.40
2016,03,28,13,27,12.50
2016,03,28,13,28,12.50
2016,03,28,13,29,12.60
2016,03,28,13,30,12.70
2016,03,28,13,31,12.80
2016,03,28,13,32,12.80
2016,03,28,13,33,12.90
2016,03,28,13,34,12.90
2016,03,28,13,35,13.00
2016,03,28,13,36,13.00
2016,03,28,13,37,12.90
2016,03,28,13,38,12.90
2016,03,28,13,39,12.90
2016,03,28,13,40,13.00
2016,03,28,13,41,13.00
2016,03,28,13,42,13.10
2016,03,28,13,43,13.20
2016,03,28,13,44,13.30
2016,03,28,13,45,13.30
2016,03,28,13,46,13.30
2016,03,28,13,47,13.20
2016,03,28,13,48,13.20
2016,03,28,13,49,13.10
2016,03,28,13,50,13.00
2016,03,28,13,51,13.00
2016,03,28,13,52,13.00
2016,03,28,13,53,13.10
2016,03,28,13,54,13.10
2016,03,28,13,55,13.20
2016,03,28,13,56,13.20
2016,03,28,13,57,13.20
2016,03,28,13,58,13.20
2016,03,28,13,59,13.20
2016,03,28,14,00,13.20
2016,03,28,14,01,13.20
2016,03,28,14,02,13.30
2016,03,28,14,03,13.30
2016,03,28,14,04,13.20
2016,03,28,14,05,13.20
2016,03,28,14,06,13.30
2016,03,28,14,07,13.30
2016,03,28,14,08,13.30
2016,03,28,14,09,13.30
2016,03,28,14,10,13.30
2016,03,28,14,11,13.20
2016,03,28,14,12,13.10
2016,03,28,14,13,13.10
2016,03,28,14,14,13.10
2016,03,28,14,15,13.10
2016,03,28,14,16,13.20
2016,03,28,14,17,13.20
2016,03,28,14,18,13.20
2016,03,28,14,19,13.30
2016,03,28,14,20,13.20
2016,03,28,14,21,13.20
2016,03,28,14,22,13.20
2016,03,28,14,23,13.20
2016,03,28,14,24,13.20
2016,03,28,14,25,13.20
2016,03,28,14,26,13.20
2016,03,28,14,27,13.30
2016,03,28,14,28,13.30
2016,03,28,14,29,13.20
2016,03,28,14,30,13.20
2016,03,28,14,31,13.20
2016,03,28,14,32,13.30
2016,03,28,14,33,13.40
2016,03,28,14,34,13.50
2016,03,28,14,35,13.50
2016,03,28,14,36,13.40
2016,03,28,14,37,13.30
2016,03,28,14,38,13.30
2016,03,28,14,39,13.30
2016,03,28,14,40,13.40
2016,03,28,14,41,13.40
2016,03,28,14,42,13.30
2016,03,28,14,43,13.30
2016,03,28,14,44,13.30
2016,03,28,14,45,13.40
2016,03,28,14,46,13.40
2016,03,28,14,47,13.40
2016,03,28,14,48,13.50
2016,03,28,14,49,13.50
2016,03,28,14,50,13.50
2016,03,28,14,51,13.40
2016,03,28,14,52,13.40
2016,03,28,14,53,13.50
2016,03,28,14,54,13.60
2016,03,28,14,55,13.70
2016,03,28,14,56,13.70
2016,03,28,14,57,13.70
2016,03,28,14,58,13.60
2016,03,28,14,59,13.50
2016,03,28,15,00,13.40
2016,03,28,15,01,13.40
2016,03,28,15,02,13.50
2016,03,28,15,03,13.50
2016,03,28,15,04,13.60
2016,03,28,15,05,13.60
2016,03,28,15,06,13.50
2016,03,28,15,07,13.50
2016,03,28,15,08,13.50
2016,03,28,15,09,13.40
2016,03,28,15,10,13.30
2016,03,28,15,11,13.20
2016,03,28,15,12,13.20
2016,03,28,15,13,13.30
2016,03,28,15,14,13.30
2016,03,28,15,15,13.40
2016,03,28,15,16,13.40
2016,03,28,15,17,13.40
2016,03,28,15,18,13.50
2016,03,28,15,19,13.60
2016,03,28,15,20,13.70
2016,03,28,15,21,13.80
2016,03,28,15,22,13.80
2016,03,28,15,23,13.80
2016,03,28,15,24,13.90
2016,03,28,15,25,13.90
2016,03,28,15,26,14.00
2016,03,28,15,27,14.00
2016,03,28,15,28,13.90
2016,03,28,15,29,13.90
2016,03,28,15,30,13.90
2016,03,28,15,31,13.80
2016,03,28,15,32,13.80
2016,03,28,15,33,13.70
2016,03,28,15,34,13.60
2016,03,28,15,35,13.60
2016,03,28,15,36,13.60
2016,03,28,15,37,13.70
2016,03,28,15,38,13.70
2016,03,28,15,39,13.80
2016,03,28,15,40,13.90
2016,03,28,15,41,14.00
2016,03,28,15,42,14.00
2016,03,28,15,43,13.90
2016,03,28,15,44,13.90
2016,03,28,15,45,14.00
2016,03,28,15,46,14.00
2016,03,28,15,47,14.10
2016,03,28,15,48,14.10
2016,03,28,15,49,14.20
2016,03,28,15,50,14.30
2016,03,28,15,51,14.30
2016,03,28,15,52,14.30
2016,03,28,15,53,14.30
2016,03,28,15,54,14.30
2016,03,28,15,55,14.30
2016,03,28,15,56,14.30
2016,03,28,15,57,14.30
2016,03,28,15,58,14.30
2016,03,28,15,59,14.30
2016,03,28,16,00,14.30
2016,03,28,16,01,14.30
2016,03,28,16,02,14.30
2016,03,28,16,03,14.30
2016,03,28,16,04,14.30
2016,03,28,16,05,14.40
2016,03,28,16,06,14.40
2016,03,28,16,07,14.40
2016,03,28,16,08,14.40
2016,03,28,16,09,14.40
2016,03,28,16,10,14.50
2016,03,28,16,11,14.50
2016,03,28,16,12,14.40
2016,03,28,16,13,14.40
2016,03,28,16,14,14.50
2016,03,28,16,15,14.40
2016,03,28,16,16,14.40
2016,03,28,16,17,14.40
2016,03,28,16,18,14.50
2016,03,28,16,19,14.50
2016,03,28,16,20,14.60
2016,03,28,16,21,14.60
2016,03,28,16,22,14.70
2016,03,28,16,23,14.60
2016,03,28,16,24,14.50
2016,03,28,16,25,14.40
2016,03,28,16,26,14.40
2016,03,28,16,27,14.40
2016,03,28,16,28,14.50
2016,03,28,16,29,14.60
2016,03,28,16,30,14.60
2016,03,28,16,31,14.70
2016,03,28,16,32,14.70
2016,03,28,16,33,14.70
2016,03,28,16,34,14.70
2016,03,28,16,35,14.60
2016,03,28,16,36,14.60
2016,03,28,16,37,14.60
2016,03,28,16,38,14.50
2016,03,28,16,39,14.40
2016,03,28,16,40,14.30
2016,03,28,16,41,14.40
2016,03,28,16,42,14.40
2016,03,28,16,43,14.50
2016,03,28,16,44,14.60
2016,03,28,16,45,14.60
2016,03,28,16,46,14.60
2016,03,28,16,47,14.50
2016,03,28,16,48,14.50
2016,03,28,16,49,14.50
2016,03,28,16,50,14.50
2016,03,28,16,51,14.50
2016,03,28,16,52,14.40
2016,03,28,16,53,14.30
2016,03,28,16,54,14.30
2016,03,28,16,55,14.40
2016,03,28,16,56,14.40
2016,03,28,16,57,14.40
2016,03,28,16,58,14.30
2016,03,28,16,59,14.30
2016,03,28,17,00,14.30
2016,03,28,17,01,14.20
2016,03,28,17,02,14.20
2016,03,28,17,03,14.20
2016,03,28,17,04,14.30
2016,03,28,17,05,14.40
2016,03,28,17,06,14.40
2016,03,28,17,07,14.50
2016,03,28,17,08,14.50
2016,03,28,17,09,14.60
2016,03,28,17,10,14.60
2016,03,28,17,11,14.70
2016,03,28,17,12,14.70
2016,03,28,17,13,14.70
2016,03,28,17,14,14.80
2016,03,28,17,15,14.80
2016,03,28,17,16,14.80
2016,03,28,17,17,14.70
2016,03,28,17,18,14.60
2016,03,28,17,19,14.50
2016,03,28,17,20,14.50
2016,03,28,17,21,14.50
2016,03,28,17,22,14.50
2016,03,28,17,23,14.50
2016,03,28,17,24,14.50
2016,03,28,17,25,14.60
2016,03,28,17,26,14.60
2016,03,28,17,27,14.70
2016,03,28,17,28,14.70
2016,03,28,17,29,14.70
2016,03,28,17,30,14.70
2016,03,28,17,31,14.70
2016,03,28,17,32,14.70
2016,03,28,17,33,14.70
2016,03,28,17,34,14.70
2016,03,28,17,35,14.70
2016,03,28,17,36,14.60
2016,03,28,17,37,14.60
2016,03,28,17,38,14.60
2016,03,28,17,39,14.50
2016,03,28,17,40,14.50
2016,03,28,17,41,14.40
2016,03,28,17,42,14.40
2016,03,28,17,43,14.30
2016,03,28,17,44,14.30
2016,03,28,17,45,14.30
2016,03,28,17,46,14.30
2016,03,28,17,47,14.30
2016,03,28,17,48,14.30